[[{"header":{"parameterUnit":"m.s-1","parameterCategory":1,"la1":30.2992,"la2":30.254,"lo1":-89.0895,"lo2":-89.0443,"dy":0.0025,"dx":0.0025,"nx":19,"ny":19,"refTime":"2026-04-11T09:00:00:Z","depth":0,"parameterNumber":2,"parameterNumberName":"U-component_of_WINDS"},"data":[0,0,0,-4.1872,-4.1873,-4.1944,-4.1944,-4.2041,-4.2042,0,0,0,0,0,0,0,0,0,0,0,-4.1854,-4.1855,-4.1872,-4.1873,-4.1944,-4.1944,-4.2041,-4.2042,0,0,0,0,0,0,0,0,0,0,0,-4.1854,-4.1854,-4.1855,-4.1874,-4.1944,-4.1944,-4.2041,-4.1985,0,0,0,0,0,0,0,0,0,0,-4.1916,-4.1902,-4.1854,-4.1855,-4.1874,-4.1944,-4.1944,-4.1983,-4.1989,-4.2012,0,-4.2033,0,-4.2039,-4.2049,-4.205,0,0,0,-4.1871,-4.1897,-4.1913,-4.1856,-4.1875,-4.1944,-4.1912,-4.1986,-4.1993,-4.202,-4.2034,-4.2037,-4.2041,-4.205,-4.205,-4.2189,-4.219,0,0,-4.1867,-4.1868,-4.1908,-4.1918,-4.1907,-4.1909,-4.1914,-4.199,-4.2006,-4.2034,-4.204,-4.2042,-4.2051,-4.2051,-4.2188,-4.2189,0,0,0,-4.1858,-4.1866,-4.188,-4.1914,-4.1926,-4.1911,-4.1917,-4.2002,-4.2007,-4.2041,-4.2043,-4.2051,-4.2052,-4.2187,-4.2189,-4.2226,0,0,0,-4.1855,-4.186,-4.1878,-4.188,-4.1925,-4.1965,-4.1927,-4.2001,-4.201,-4.2043,-4.2051,-4.2053,-4.2187,-4.2188,-4.2223,-4.2244,0,0,0,-4.1848,-4.1859,-4.1871,-4.188,-4.191,-4.1964,-4.1972,-4.2003,-4.2012,-4.205,-4.2054,-4.2186,-4.2188,-4.2221,-4.224,-4.228,0,0,0,-4.1841,-4.1903,-4.1871,-4.1942,-4.191,-4.1986,-4.1972,-4.2029,-4.2066,-4.2052,-4.2187,-4.2188,-4.222,-4.2237,-4.2278,-4.2314,-4.233,0,0,-4.192,-4.1913,-4.1954,-4.1928,-4.201,-4.1976,-4.2064,-4.2097,-4.21,-4.2159,-4.2163,-4.2224,-4.2239,-4.228,-4.2417,-4.243,0,0,0,-4.198,-4.201,-4.2031,-4.2066,-4.2093,-4.2118,-4.2137,-4.2149,-4.2199,-4.2131,-4.225,-4.2259,-4.2283,-4.23,-4.2311,-4.2331,-4.2197,-4.2197,-4.2196,-4.2093,-4.2093,-4.2162,-4.2171,-4.2205,-4.2225,-4.2253,-4.2273,-4.2263,-4.2292,-4.2309,-4.2392,-4.2413,-4.2421,-4.2442,-4.2329,-4.2329,-4.2329,-4.2329,-4.2208,-4.225,-4.2236,-4.2298,-4.2298,-4.235,-4.2372,-4.2363,-4.2412,-4.2379,-4.24,-4.2363,-4.2434,-4.2453,-4.2332,-4.2332,-4.2331,-4.2331,-4.2331,-4.2282,-4.2302,-4.2316,-4.2367,-4.2406,-4.2414,-4.2461,-4.246,-4.2459,-4.248,-4.2498,-4.2498,-4.2496,-4.2489,-4.2489,-4.249,-4.249,-4.249,-4.249,-4.2353,-4.2367,-4.2407,-4.244,-4.2463,-4.2493,-4.2514,-4.2536,-4.2561,-4.2556,-4.2556,-4.2544,-4.2441,-4.2415,-4.2495,-4.2494,-4.2493,-4.2493,-4.2493,-4.2469,-4.2442,-4.2503,-4.2526,-4.2566,-4.2605,-4.2603,-4.2649,-4.2668,-4.2692,-4.2675,-4.2599,-4.2592,-4.2584,-4.2562,-4.2675,-4.2675,-4.2675,-4.2675,-4.253,-4.2526,-4.2589,-4.2625,-4.266,-4.2665,-4.2735,-4.2752,-4.2766,-4.2778,-4.2762,-4.2733,-4.2725,-4.2722,-4.2711,-4.2691,-4.2834,-4.2834,-4.2834,-4.2601,-4.2601,-4.266,-4.2673,-4.2704,-4.2731,-4.2797,-4.284,-4.2851,-4.2841,-4.2787,-4.2781,-4.2734,-4.2719,-4.2707,-4.269,-4.2652,0,0]},{"header":{"parameterUnit":"m.s-1","parameterCategory":1,"la1":30.2992,"la2":30.254,"lo1":-89.0895,"lo2":-89.0443,"dy":0.0025,"dx":0.0025,"nx":19,"ny":19,"refTime":"2026-04-11T09:00:00:Z","depth":0,"parameterNumber":3,"parameterNumberName":"V-component_of_WINDS"},"data":[0,0,0,3.8755,3.8756,3.8797,3.8797,3.8831,3.8831,0,0,0,0,0,0,0,0,0,0,0,3.8733,3.8733,3.8755,3.8756,3.8797,3.8797,3.8831,3.8831,0,0,0,0,0,0,0,0,0,0,0,3.8733,3.8733,3.8733,3.8756,3.8797,3.8797,3.8831,3.8806,0,0,0,0,0,0,0,0,0,0,3.8769,3.874,3.8733,3.8733,3.8756,3.8797,3.8797,3.8805,3.8808,3.8805,0,3.8801,0,3.8817,3.8832,3.8832,0,0,0,3.8763,3.8738,3.8758,3.8733,3.8756,3.8797,3.878,3.8807,3.8809,3.8808,3.8802,3.8804,3.8817,3.8832,3.8832,3.8799,3.8799,0,0,3.876,3.8735,3.8756,3.8759,3.8754,3.8779,3.8781,3.8809,3.8799,3.8802,3.8805,3.8818,3.8832,3.8833,3.88,3.8799,0,0,0,3.8749,3.8733,3.8753,3.8757,3.8766,3.878,3.8783,3.8798,3.8807,3.8805,3.8818,3.8833,3.8833,3.88,3.88,3.8754,0,0,0,3.8748,3.8726,3.8751,3.8736,3.8766,3.8783,3.8771,3.8805,3.8809,3.8818,3.8833,3.8833,3.8801,3.88,3.8756,3.8737,0,0,0,3.8734,3.8725,3.8728,3.8735,3.8752,3.8783,3.8794,3.8807,3.8817,3.8832,3.8833,3.8801,3.88,3.8759,3.874,3.8722,0,0,0,3.871,3.8684,3.8726,3.8702,3.8751,3.8755,3.8794,3.8797,3.8805,3.8833,3.8801,3.88,3.8759,3.8742,3.8725,3.8704,3.8693,0,0,3.8663,3.8677,3.8665,3.8704,3.8695,3.8751,3.8734,3.8763,3.8786,3.8793,3.8793,3.8756,3.874,3.8723,3.8636,3.8627,0,0,0,3.8641,3.8632,3.8635,3.8643,3.8667,3.8686,3.8722,3.8733,3.8741,3.8785,3.8744,3.8736,3.8727,3.8718,3.871,3.8705,3.8794,3.8794,3.8794,3.8537,3.8571,3.8554,3.8593,3.86,3.8638,3.8647,3.8668,3.8697,3.8687,3.869,3.8633,3.8622,3.8617,3.8611,3.868,3.868,3.868,3.868,3.8472,3.8466,3.8509,3.8508,3.8544,3.8542,3.8578,3.8599,3.8603,3.8633,3.8627,3.8659,3.8606,3.8602,3.8677,3.8677,3.8678,3.8678,3.8678,3.841,3.8413,3.8429,3.8445,3.8453,3.8493,3.8496,3.8526,3.8555,3.8549,3.8556,3.8557,3.8563,3.855,3.855,3.8549,3.8549,3.8549,3.8549,3.8339,3.8359,3.8358,3.8383,3.8394,3.8411,3.8449,3.846,3.8479,3.8501,3.8501,3.8533,3.8594,3.861,3.8546,3.8547,3.8547,3.8547,3.8547,3.8264,3.8287,3.8286,3.8297,3.8329,3.8337,3.8376,3.8395,3.8407,3.8408,3.8441,3.8481,3.8497,3.8503,3.8517,3.8433,3.8433,3.8433,3.8433,3.8213,3.8225,3.8233,3.8248,3.8266,3.8303,3.8301,3.833,3.8364,3.8374,3.839,3.841,3.8415,3.8429,3.8437,3.845,3.8351,3.8351,3.8351,3.817,3.8185,3.8179,3.8215,3.8243,3.8266,3.8266,3.828,3.8322,3.8348,3.8383,3.8386,3.8419,3.8427,3.8455,3.8466,3.8491,0,0]}]]